Location: Mauries
(43.6188°N, 0.3322°W)
Time: 19:12:50
(UTC+00:00)

GEOS 3 Rocket - Pass Details

Date: 14 January 2026
Orbit: 768 x 845 km, 115.0° (Epoch: 11 February)

Event Time Altitude Azimuth Distance (km) Brightness Sun altitude
Rises 06:33:06 0° 166° (SSE) 3,286 7.3 -10.6°
Reaches altitude 10° 06:35:32 10° 175° (S) 2,372 6.4 -10.2°
Maximum altitude 06:40:16 36° 241° (WSW) 1,265 4.3 -9.4°
Drops below altitude 10° 06:45:06 10° 307° (NW) 2,432 5.5 -8.5°
Enters shadow 06:45:19 - 308° (NW) 2,511 5.6 -8.5°
